,,PA_Meas_PMT16A,,PR_Meas_QMR101_102,,RH_Meas_QMH101,,SR_Meas_QMS101,,TA_Meas_QMH101,,GenWind,,GenWind,
time,status,PA,status,PR,status,RH,status,SR,status,TA,status,DirAvg,status,SpdAvg,
2013-09-08, 00:00:04,VALID,918.464,VALID,0,VALID,92.5711,VALID,0,VALID,19.1373,VALID,135,VALID,0,
2013-09-08, 00:01:04,VALID,918.446,VALID,0,VALID,92.6779,VALID,0,VALID,19.1388,VALID,134,VALID,0,
2013-09-08, 00:02:04,VALID,918.438,VALID,0,VALID,92.8227,VALID,0,VALID,19.1178,VALID,134,VALID,0,
2013-09-08, 00:03:04,VALID,918.387,VALID,0,VALID,92.9218,VALID,0,VALID,19.1373,VALID,134,VALID,0,
2013-09-08, 00:04:04,VALID,918.362,VALID,0,VALID,92.9142,VALID,0,VALID,19.1373,VALID,139,VALID,0,
2013-09-08, 00:05:04,VALID,918.379,VALID,0,VALID,92.9676,VALID,0,VALID,19.1373,VALID,131,VALID,0,
2013-09-08, 00:06:04,VALID,918.357,VALID,0,VALID,92.9218,VALID,0,VALID,19.1373,VALID,137,VALID,0,
2013-09-08, 00:07:04,VALID,918.334,VALID,0,VALID,92.9599,VALID,0,VALID,19.1178,VALID,129,VALID,0,
2013-09-08, 00:08:04,VALID,918.336,VALID,0,VALID,93.0285,VALID,0,VALID,19.1178,VALID,139,VALID,0,
2013-09-08, 00:09:04,VALID,918.316,VALID,0,VALID,93.0819,VALID,0,VALID,19.1373,VALID,138,VALID,0,
2013-09-08, 00:10:04,VALID,918.302,VALID,0,VALID,93.1505,VALID,0,VALID,19.1373,VALID,139,VALID,0,
2013-09-08, 00:11:04,VALID,918.314,VALID,0,VALID,93.1429,VALID,0,VALID,19.1178,VALID,159,VALID,0,
2013-09-08, 00:12:04,VALID,918.271,VALID,0,VALID,93.1734,VALID,0,VALID,19.1583,VALID,138,VALID,0,
2013-09-08, 00:13:04,VALID,918.272,VALID,0,VALID,93.1963,VALID,0,VALID,19.1178,VALID,143,VALID,0,
2013-09-08, 00:14:04,VALID,918.231,VALID,0,VALID,93.1048,VALID,0,VALID,19.1178,VALID,140,VALID,0,
2013-09-08, 00:15:04,VALID,918.231,VALID,0,VALID,93.0362,VALID,0,VALID,19.1373,VALID,144,VALID,0,
2013-09-08, 00:16:04,VALID,918.243,VALID,0,VALID,92.9447,VALID,0,VALID,19.1178,VALID,136,VALID,0,
2013-09-08, 00:17:04,VALID,918.251,VALID,0,VALID,92.8456,VALID,0,VALID,19.1178,VALID,137,VALID,0,
2013-09-08, 00:18:04,VALID,918.188,VALID,0,VALID,92.7312,VALID,0,VALID,19.1193,VALID,130,VALID,0,
2013-09-08, 00:19:04,VALID,918.196,VALID,0,VALID,92.6397,VALID,0,VALID,19.0983,VALID,123,VALID,0,
2013-09-08, 00:20:04,VALID,918.176,VALID,0,VALID,92.5483,VALID,0,VALID,19.0983,VALID,123,VALID,0,
2013-09-08, 00:21:04,VALID,918.175,VALID,0,VALID,92.533,VALID,0,VALID,19.0983,VALID,121,VALID,0,
2013-09-08, 00:22:04,VALID,918.173,VALID,0,VALID,92.5025,VALID,0,VALID,19.0788,VALID,115,VALID,0,
2013-09-08, 00:23:04,VALID,918.131,VALID,0,VALID,92.4797,VALID,0,VALID,19.0788,VALID,116,VALID,0,
2013-09-08, 00:24:04,VALID,918.118,VALID,0,VALID,92.4187,VALID,0,VALID,19.0593,VALID,118,VALID,0,
2013-09-08, 00:25:04,VALID,918.12,VALID,0,VALID,92.4415,VALID,0,VALID,19.0593,VALID,115,VALID,0,
2013-09-08, 00:26:04,VALID,918.106,VALID,0,VALID,92.4644,VALID,0,VALID,19.0608,VALID,113,VALID,0,
2013-09-08, 00:27:04,VALID,918.103,VALID,0,VALID,92.5788,VALID,0,VALID,19.0398,VALID,123,VALID,0,
2013-09-08, 00:28:04,VALID,918.13,VALID,0,VALID,92.6626,VALID,0,VALID,19.0203,VALID,126,VALID,0,
2013-09-08, 00:29:04,VALID,918.137,VALID,0,VALID,92.7693,VALID,0,VALID,19.0008,VALID,125,VALID,0,
2013-09-08, 00:30:04,VALID,918.124,VALID,0,VALID,92.8685,VALID,0,VALID,19.0008,VALID,127,VALID,0,
2013-09-08, 00:31:04,VALID,918.125,VALID,0,VALID,92.9371,VALID,0,VALID,18.9619,VALID,127,VALID,0,
2013-09-08, 00:32:04,VALID,918.117,VALID,0,VALID,93.2877,VALID,0,VALID,18.9633,VALID,133,VALID,0,
2013-09-08, 00:33:04,VALID,918.132,VALID,0,VALID,93.5088,VALID,0,VALID,18.9424,VALID,133,VALID,0,
2013-09-08, 00:34:04,VALID,918.133,VALID,0,VALID,93.7299,VALID,0,VALID,18.9048,VALID,118,VALID,0,
2013-09-08, 00:35:04,VALID,918.092,VALID,0,VALID,93.9205,VALID,0,VALID,18.8644,VALID,117,VALID,0,
2013-09-08, 00:36:04,VALID,918.082,VALID,0,VALID,94.0806,VALID,0,VALID,18.8254,VALID,125,VALID,0,
2013-09-08, 00:37:04,VALID,918.076,VALID,0,VALID,94.1187,VALID,0,VALID,18.8059,VALID,123,VALID,0,
2013-09-08, 00:38:04,VALID,918.059,VALID,0,VALID,94.0958,VALID,0,VALID,18.8073,VALID,120,VALID,0,
2013-09-08, 00:39:04,VALID,918.025,VALID,0,VALID,93.9967,VALID,0,VALID,18.7864,VALID,120,VALID,0,
2013-09-08, 00:40:04,VALID,918.056,VALID,0,VALID,93.8595,VALID,0,VALID,18.8059,VALID,109,VALID,0,
2013-09-08, 00:41:04,VALID,918.051,VALID,0,VALID,93.646,VALID,0,VALID,18.8059,VALID,115,VALID,0,
2013-09-08, 00:42:04,VALID,918.017,VALID,0,VALID,93.4707,VALID,0,VALID,18.8463,VALID,115,VALID,0,
2013-09-08, 00:43:04,VALID,918.017,VALID,0,VALID,93.2801,VALID,0,VALID,18.8254,VALID,115,VALID,0,
2013-09-08, 00:44:04,VALID,918.023,VALID,0,VALID,93.0972,VALID,0,VALID,18.8254,VALID,117,VALID,0,
2013-09-08, 00:45:04,VALID,917.983,VALID,0,VALID,92.9294,VALID,0,VALID,18.8449,VALID,117,VALID,0,
2013-09-08, 00:46:04,VALID,918.002,VALID,0,VALID,92.7922,VALID,0,VALID,18.8463,VALID,118,VALID,0,
2013-09-08, 00:47:04,VALID,917.975,VALID,0,VALID,92.7465,VALID,0,VALID,18.8254,VALID,121,VALID,0,
2013-09-08, 00:48:04,VALID,917.96,VALID,0,VALID,92.7007,VALID,0,VALID,18.8059,VALID,120,VALID,0,
2013-09-08, 00:49:04,VALID,917.955,VALID,0,VALID,92.7007,VALID,0,VALID,18.8073,VALID,121,VALID,0,
2013-09-08, 00:50:04,VALID,917.921,VALID,0,VALID,92.716,VALID,0,VALID,18.8268,VALID,120,VALID,0,
2013-09-08, 00:51:04,VALID,917.867,VALID,0,VALID,92.7389,VALID,0,VALID,18.7864,VALID,112,VALID,0,
2013-09-08, 00:52:04,VALID,917.869,VALID,0,VALID,92.7693,VALID,0,VALID,18.8073,VALID,134,VALID,0,
2013-09-08, 00:53:04,VALID,917.872,VALID,0,VALID,92.838,VALID,0,VALID,18.7864,VALID,134,VALID,0,
2013-09-08, 00:54:04,VALID,917.871,VALID,0,VALID,92.9294,VALID,0,VALID,18.7864,VALID,134,VALID,0,
2013-09-08, 00:55:04,VALID,917.86,VALID,0,VALID,92.9599,VALID,0,VALID,18.8059,VALID,134,VALID,0,
2013-09-08, 00:56:04,VALID,917.822,VALID,0,VALID,92.9676,VALID,0,VALID,18.7864,VALID,137,VALID,0,
2013-09-08, 00:57:04,VALID,917.803,VALID,0,VALID,93.0057,VALID,0,VALID,18.7878,VALID,138,VALID,0,
2013-09-08, 00:58:04,VALID,917.793,VALID,0,VALID,93.0438,VALID,0,VALID,18.7878,VALID,123,VALID,0,
2013-09-08, 00:59:04,VALID,917.762,VALID,0,VALID,93.0743,VALID,0,VALID,18.7474,VALID,132,VALID,0,
2013-09-08, 01:00:04,VALID,917.758,VALID,0,VALID,93.0514,VALID,0,VALID,18.7279,VALID,125,VALID,0,
2013-09-08, 01:01:04,VALID,917.711,VALID,0,VALID,93.0209,VALID,0,VALID,18.7293,VALID,106,VALID,0,
2013-09-08, 01:02:04,VALID,917.69,VALID,0,VALID,93.0209,VALID,0,VALID,18.7293,VALID,111,VALID,0,
2013-09-08, 01:03:04,VALID,917.712,VALID,0,VALID,92.9904,VALID,0,VALID,18.7084,VALID,119,VALID,0,
2013-09-08, 01:04:04,VALID,917.706,VALID,0,VALID,92.9752,VALID,0,VALID,18.7293,VALID,120,VALID,0,
2013-09-08, 01:05:04,VALID,917.697,VALID,0,VALID,92.9371,VALID,0,VALID,18.7293,VALID,121,VALID,0,
2013-09-08, 01:06:04,VALID,917.663,VALID,0,VALID,92.8913,VALID,0,VALID,18.7084,VALID,135,VALID,0,
2013-09-08, 01:07:04,VALID,917.675,VALID,0,VALID,92.8608,VALID,0,VALID,18.7279,VALID,135,VALID,0,
2013-09-08, 01:08:04,VALID,917.683,VALID,0,VALID,92.9294,VALID,0,VALID,18.7683,VALID,136,VALID,0,
2013-09-08, 01:09:04,VALID,917.684,VALID,0,VALID,92.9523,VALID,0,VALID,18.7878,VALID,136,VALID,0,
2013-09-08, 01:10:04,VALID,917.654,VALID,0,VALID,92.9599,VALID,0,VALID,18.7669,VALID,136,VALID,0,
2013-09-08, 01:11:04,VALID,917.619,VALID,0,VALID,92.9523,VALID,0,VALID,18.8059,VALID,136,VALID,0,
2013-09-08, 01:12:04,VALID,917.645,VALID,0,VALID,92.8989,VALID,0,VALID,18.8268,VALID,136,VALID,0,
2013-09-08, 01:13:04,VALID,917.634,VALID,0,VALID,92.8151,VALID,0,VALID,18.8268,VALID,136,VALID,0,
2013-09-08, 01:14:04,VALID,917.642,VALID,0,VALID,92.7846,VALID,0,VALID,18.8463,VALID,134,VALID,0,
2013-09-08, 01:15:04,VALID,917.63,VALID,0,VALID,92.7465,VALID,0,VALID,18.8658,VALID,136,VALID,0,
2013-09-08, 01:16:04,VALID,917.624,VALID,0,VALID,92.7312,VALID,0,VALID,18.8853,VALID,136,VALID,0,
2013-09-08, 01:17:04,VALID,917.628,VALID,0,VALID,92.6321,VALID,0,VALID,18.8853,VALID,136,VALID,0,
2013-09-08, 01:18:04,VALID,917.593,VALID,0,VALID,92.4187,VALID,0,VALID,18.9048,VALID,164,VALID,0,
2013-09-08, 01:19:04,VALID,917.599,VALID,0,VALID,92.2586,VALID,0,VALID,18.9229,VALID,164,VALID,0,
2013-09-08, 01:20:04,VALID,917.61,VALID,0,VALID,92.0604,VALID,0,VALID,18.9424,VALID,164,VALID,0,
2013-09-08, 01:21:04,VALID,917.61,VALID,0,VALID,91.8088,VALID,0,VALID,18.9633,VALID,164,VALID,0,
2013-09-08, 01:22:04,VALID,917.625,VALID,0,VALID,91.5725,VALID,0,VALID,18.9424,VALID,164,VALID,0,
2013-09-08, 01:23:04,VALID,917.624,VALID,0,VALID,91.4505,VALID,0,VALID,18.9424,VALID,164,VALID,0,
2013-09-08, 01:24:04,VALID,917.633,VALID,0,VALID,91.3666,VALID,0,VALID,18.9424,VALID,164,VALID,0,
2013-09-08, 01:25:04,VALID,917.612,VALID,0,VALID,91.359,VALID,0.107441,VALID,18.9034,VALID,155,VALID,0,
2013-09-08, 01:26:04,VALID,917.615,VALID,0,VALID,91.3819,VALID,0,VALID,18.9243,VALID,133,VALID,0,
2013-09-08, 01:27:04,VALID,917.584,VALID,0,VALID,91.3895,VALID,0,VALID,18.8644,VALID,129,VALID,0,
2013-09-08, 01:28:04,VALID,917.576,VALID,0,VALID,91.4886,VALID,0,VALID,18.8658,VALID,129,VALID,0,
2013-09-08, 01:29:04,VALID,917.594,VALID,0,VALID,91.6411,VALID,0,VALID,18.8059,VALID,129,VALID,0,
2013-09-08, 01:30:04,VALID,917.576,VALID,0,VALID,91.7859,VALID,0,VALID,18.7878,VALID,127,VALID,0,
2013-09-08, 01:31:04,VALID,917.572,VALID,0,VALID,91.9003,VALID,0,VALID,18.7474,VALID,127,VALID,0,
2013-09-08, 01:32:04,VALID,917.541,VALID,0,VALID,92.0146,VALID,0,VALID,18.7279,VALID,127,VALID,0,
2013-09-08, 01:33:04,VALID,917.548,VALID,0,VALID,92.129,VALID,0,VALID,18.7279,VALID,145,VALID,0,
2013-09-08, 01:34:04,VALID,917.533,VALID,0,VALID,92.2357,VALID,0,VALID,18.7084,VALID,145,VALID,0,
2013-09-08, 01:35:04,VALID,917.504,VALID,0,VALID,92.3119,VALID,0,VALID,18.6499,VALID,123,VALID,0,
2013-09-08, 01:36:04,VALID,917.501,VALID,0,VALID,92.4187,VALID,0,VALID,18.6499,VALID,123,VALID,0,
2013-09-08, 01:37:04,VALID,917.482,VALID,0,VALID,92.472,VALID,0,VALID,18.6304,VALID,123,VALID,0,
2013-09-08, 01:38:04,VALID,917.445,VALID,0,VALID,92.6397,VALID,0,VALID,18.6109,VALID,123,VALID,0,
2013-09-08, 01:39:04,VALID,917.461,VALID,0,VALID,92.6855,VALID,0,VALID,18.6109,VALID,123,VALID,0,
2013-09-08, 01:40:04,VALID,917.437,VALID,0,VALID,92.6474,VALID,0,VALID,18.6513,VALID,123,VALID,0,
2013-09-08, 01:41:04,VALID,917.457,VALID,0,VALID,92.6169,VALID,0,VALID,18.6499,VALID,123,VALID,0,
2013-09-08, 01:42:04,VALID,917.454,VALID,0,VALID,92.6474,VALID,0,VALID,18.6513,VALID,123,VALID,0,
2013-09-08, 01:43:04,VALID,917.444,VALID,0,VALID,92.7389,VALID,0,VALID,18.6304,VALID,123,VALID,0,
2013-09-08, 01:44:04,VALID,917.431,VALID,0,VALID,92.6855,VALID,0,VALID,18.6694,VALID,123,VALID,0,
2013-09-08, 01:45:04,VALID,917.426,VALID,0,VALID,92.5102,VALID,0,VALID,18.7293,VALID,125,VALID,0,
2013-09-08, 01:46:04,VALID,917.41,VALID,0,VALID,92.251,VALID,0,VALID,18.7488,VALID,127,VALID,0,
2013-09-08, 01:47:04,VALID,917.42,VALID,0,VALID,92.0985,VALID,0,VALID,18.7683,VALID,143,VALID,0,
2013-09-08, 01:48:04,VALID,917.441,VALID,0,VALID,91.9994,VALID,0,VALID,18.7878,VALID,131,VALID,0,
2013-09-08, 01:49:04,VALID,917.409,VALID,0,VALID,91.9231,VALID,0,VALID,18.8073,VALID,135,VALID,0,
2013-09-08, 01:50:04,VALID,917.383,VALID,0,VALID,91.8698,VALID,0,VALID,18.8073,VALID,133,VALID,0,
2013-09-08, 01:51:04,VALID,917.363,VALID,0,VALID,91.7402,VALID,0,VALID,18.8073,VALID,124,VALID,0,
2013-09-08, 01:52:04,VALID,917.358,VALID,0,VALID,91.6182,VALID,0,VALID,18.8268,VALID,129,VALID,0,
2013-09-08, 01:53:04,VALID,917.323,VALID,0,VALID,91.5648,VALID,0,VALID,18.7864,VALID,132,VALID,0,
2013-09-08, 01:54:04,VALID,917.33,VALID,0,VALID,91.603,VALID,0,VALID,18.8073,VALID,141,VALID,0,
2013-09-08, 01:55:04,VALID,917.31,VALID,0,VALID,91.5572,VALID,0,VALID,18.7864,VALID,139,VALID,0,
2013-09-08, 01:56:04,VALID,917.315,VALID,0,VALID,91.5039,VALID,0,VALID,18.8059,VALID,135,VALID,0,
2013-09-08, 01:57:04,VALID,917.287,VALID,0,VALID,91.3514,VALID,0,VALID,18.8658,VALID,135,VALID,0,
2013-09-08, 01:58:04,VALID,917.303,VALID,0,VALID,91.1151,VALID,0.107441,VALID,18.8839,VALID,134,VALID,0,
2013-09-08, 01:59:04,VALID,917.343,VALID,0,VALID,90.9016,VALID,0,VALID,18.9243,VALID,139,VALID,0,
2013-09-08, 02:00:04,VALID,917.34,VALID,0,VALID,90.6882,VALID,0,VALID,18.9229,VALID,131,VALID,0,
2013-09-08, 02:01:04,VALID,917.341,VALID,0,VALID,90.6577,VALID,0,VALID,18.9633,VALID,130,VALID,0,
2013-09-08, 02:02:04,VALID,917.32,VALID,0,VALID,90.6729,VALID,0,VALID,18.9438,VALID,130,VALID,0,
2013-09-08, 02:03:04,VALID,917.347,VALID,0,VALID,90.7491,VALID,0,VALID,18.9034,VALID,130,VALID,0,
2013-09-08, 02:04:04,VALID,917.348,VALID,0,VALID,90.9169,VALID,0,VALID,18.9048,VALID,140,VALID,0,
2013-09-08, 02:05:04,VALID,917.299,VALID,0,VALID,91.0312,VALID,0,VALID,18.8853,VALID,150,VALID,0,
2013-09-08, 02:06:04,VALID,917.326,VALID,0,VALID,91.0541,VALID,0,VALID,18.9062,VALID,151,VALID,0,
2013-09-08, 02:07:04,VALID,917.309,VALID,0,VALID,91.1456,VALID,0,VALID,18.8839,VALID,151,VALID,0,
2013-09-08, 02:08:04,VALID,917.3,VALID,0,VALID,91.2752,VALID,0,VALID,18.8853,VALID,151,VALID,0,
2013-09-08, 02:09:04,VALID,917.284,VALID,0,VALID,91.4276,VALID,0,VALID,18.8463,VALID,140,VALID,0,
2013-09-08, 02:10:04,VALID,917.256,VALID,0,VALID,91.5953,VALID,0,VALID,18.8059,VALID,131,VALID,0,
2013-09-08, 02:11:04,VALID,917.246,VALID,0,VALID,91.7631,VALID,0,VALID,18.7864,VALID,131,VALID,0,
2013-09-08, 02:12:04,VALID,917.269,VALID,0,VALID,91.7859,VALID,0,VALID,18.7878,VALID,134,VALID,0,
2013-09-08, 02:13:04,VALID,917.25,VALID,0,VALID,91.7707,VALID,0,VALID,18.7878,VALID,133,VALID,0,
2013-09-08, 02:14:04,VALID,917.253,VALID,0,VALID,91.7707,VALID,0,VALID,18.8073,VALID,133,VALID,0,
2013-09-08, 02:15:04,VALID,917.225,VALID,0,VALID,91.6868,VALID,0,VALID,18.7878,VALID,133,VALID,0,
2013-09-08, 02:16:04,VALID,917.216,VALID,0,VALID,91.5496,VALID,0,VALID,18.7878,VALID,134,VALID,0,
2013-09-08, 02:17:04,VALID,917.194,VALID,0,VALID,91.5267,VALID,0,VALID,18.8073,VALID,146,VALID,0,
2013-09-08, 02:18:04,VALID,917.214,VALID,0,VALID,91.6106,VALID,0,VALID,18.8073,VALID,142,VALID,0,
2013-09-08, 02:19:04,VALID,917.186,VALID,0,VALID,91.5191,VALID,0,VALID,18.8073,VALID,141,VALID,0,
2013-09-08, 02:20:04,VALID,917.221,VALID,0,VALID,91.5191,VALID,0,VALID,18.8073,VALID,138,VALID,0,
2013-09-08, 02:21:04,VALID,917.226,VALID,0,VALID,91.5039,VALID,0,VALID,18.8073,VALID,139,VALID,0,
2013-09-08, 02:22:04,VALID,917.229,VALID,0,VALID,91.4962,VALID,0,VALID,18.7878,VALID,139,VALID,0,
2013-09-08, 02:23:04,VALID,917.245,VALID,0,VALID,91.5496,VALID,0,VALID,18.7878,VALID,139,VALID,0,
2013-09-08, 02:24:04,VALID,917.236,VALID,0,VALID,91.5648,VALID,0,VALID,18.8073,VALID,138,VALID,0,
2013-09-08, 02:25:04,VALID,917.219,VALID,0,VALID,91.6258,VALID,0,VALID,18.8268,VALID,139,VALID,0,
2013-09-08, 02:26:04,VALID,917.17,VALID,0,VALID,91.6487,VALID,0,VALID,18.8268,VALID,140,VALID,0,
2013-09-08, 02:27:04,VALID,917.203,VALID,0,VALID,91.664,VALID,0,VALID,18.8268,VALID,139,VALID,0,
2013-09-08, 02:28:04,VALID,917.21,VALID,0,VALID,91.6182,VALID,0,VALID,18.8268,VALID,139,VALID,0,
2013-09-08, 02:29:04,VALID,917.195,VALID,0,VALID,91.5191,VALID,0,VALID,18.8463,VALID,139,VALID,0,
2013-09-08, 02:30:04,VALID,917.198,VALID,0,VALID,91.5115,VALID,0,VALID,18.8268,VALID,140,VALID,0,
2013-09-08, 02:31:04,VALID,917.176,VALID,0,VALID,91.4581,VALID,0,VALID,18.8073,VALID,139,VALID,0,
2013-09-08, 02:32:04,VALID,917.164,VALID,0,VALID,91.4581,VALID,0,VALID,18.8073,VALID,139,VALID,0,
2013-09-08, 02:33:04,VALID,917.137,VALID,0,VALID,91.4048,VALID,0,VALID,18.7878,VALID,139,VALID,0,
2013-09-08, 02:34:04,VALID,917.157,VALID,0,VALID,91.3514,VALID,0,VALID,18.8073,VALID,139,VALID,0,
2013-09-08, 02:35:04,VALID,917.156,VALID,0,VALID,91.1989,VALID,0,VALID,18.8073,VALID,139,VALID,0,
2013-09-08, 02:36:04,VALID,917.168,VALID,0,VALID,91.0312,VALID,0,VALID,18.8268,VALID,139,VALID,0,
2013-09-08, 02:37:04,VALID,917.143,VALID,0,VALID,90.9092,VALID,0,VALID,18.8268,VALID,139,VALID,0,
2013-09-08, 02:38:04,VALID,917.162,VALID,0,VALID,90.8406,VALID,0,VALID,18.8268,VALID,139,VALID,0,
2013-09-08, 02:39:04,VALID,917.138,VALID,0,VALID,90.7415,VALID,0,VALID,18.8463,VALID,139,VALID,0,
2013-09-08, 02:40:04,VALID,917.119,VALID,0,VALID,90.711,VALID,0,VALID,18.8658,VALID,139,VALID,0,
2013-09-08, 02:41:04,VALID,917.118,VALID,0,VALID,90.6577,VALID,0,VALID,18.8449,VALID,139,VALID,0,
2013-09-08, 02:42:04,VALID,917.111,VALID,0,VALID,90.6348,VALID,0,VALID,18.8658,VALID,139,VALID,0,
2013-09-08, 02:43:04,VALID,917.085,VALID,0,VALID,90.5662,VALID,0,VALID,18.8463,VALID,139,VALID,0,
2013-09-08, 02:44:04,VALID,917.071,VALID,0,VALID,90.5052,VALID,0,VALID,18.8463,VALID,139,VALID,0,
2013-09-08, 02:45:04,VALID,917.08,VALID,0,VALID,90.5814,VALID,0,VALID,18.8073,VALID,139,VALID,0,
2013-09-08, 02:46:04,VALID,917.104,VALID,0,VALID,90.7491,VALID,0,VALID,18.7878,VALID,139,VALID,0,
2013-09-08, 02:47:04,VALID,917.072,VALID,0,VALID,90.9016,VALID,0,VALID,18.7488,VALID,139,VALID,0,
2013-09-08, 02:48:04,VALID,917.052,VALID,0,VALID,91.1379,VALID,0,VALID,18.7098,VALID,139,VALID,0,
2013-09-08, 02:49:04,VALID,917.031,VALID,0,VALID,91.3666,VALID,0,VALID,18.6918,VALID,139,VALID,0,
2013-09-08, 02:50:04,VALID,917.03,VALID,0,VALID,91.4962,VALID,0,VALID,18.6319,VALID,139,VALID,0,
2013-09-08, 02:51:04,VALID,917.034,VALID,0,VALID,91.5801,VALID,0,VALID,18.5734,VALID,139,VALID,0,
2013-09-08, 02:52:04,VALID,917.041,VALID,0,VALID,91.8164,VALID,0,VALID,18.5149,VALID,149,VALID,0,
2013-09-08, 02:53:04,VALID,917.068,VALID,0,VALID,92.0604,VALID,0,VALID,18.5163,VALID,149,VALID,0,
2013-09-08, 02:54:04,VALID,917.055,VALID,0,VALID,92.1442,VALID,0,VALID,18.4564,VALID,148,VALID,0,
2013-09-08, 02:55:04,VALID,917.048,VALID,0,VALID,92.2814,VALID,0,VALID,18.4174,VALID,148,VALID,0,
2013-09-08, 02:56:04,VALID,917.039,VALID,0,VALID,92.411,VALID,0,VALID,18.3784,VALID,148,VALID,0,
2013-09-08, 02:57:04,VALID,917.046,VALID,0,VALID,92.7236,VALID,0,VALID,18.3394,VALID,148,VALID,0,
2013-09-08, 02:58:04,VALID,917.049,VALID,0,VALID,92.9981,VALID,0,VALID,18.3213,VALID,148,VALID,0,
2013-09-08, 02:59:04,VALID,917.059,VALID,0,VALID,93.2572,VALID,0,VALID,18.2615,VALID,147,VALID,0,
2013-09-08, 03:00:04,VALID,917.049,VALID,0,VALID,93.5393,VALID,0,VALID,18.2225,VALID,147,VALID,0,
2013-09-08, 03:01:04,VALID,917.049,VALID,0,VALID,93.8061,VALID,0,VALID,18.2225,VALID,147,VALID,0,
2013-09-08, 03:02:04,VALID,917.041,VALID,0,VALID,93.8747,VALID,0,VALID,18.203,VALID,147,VALID,0,
2013-09-08, 03:03:04,VALID,917.029,VALID,0,VALID,93.9205,VALID,0,VALID,18.1835,VALID,147,VALID,0,
2013-09-08, 03:04:04,VALID,917.044,VALID,0,VALID,93.9815,VALID,0,VALID,18.1236,VALID,147,VALID,0,
2013-09-08, 03:05:04,VALID,917.02,VALID,0,VALID,94.073,VALID,0,VALID,18.164,VALID,151,VALID,0,
2013-09-08, 03:06:04,VALID,917.005,VALID,0,VALID,94.233,VALID,0,VALID,18.125,VALID,152,VALID,0,
2013-09-08, 03:07:04,VALID,916.993,VALID,0,VALID,94.2864,VALID,0,VALID,18.1041,VALID,152,VALID,0,
2013-09-08, 03:08:04,VALID,917,VALID,0,VALID,94.233,VALID,0,VALID,18.086,VALID,148,VALID,0,
2013-09-08, 03:09:04,VALID,916.984,VALID,0,VALID,94.2483,VALID,0,VALID,18.047,VALID,135,VALID,0,
2013-09-08, 03:10:04,VALID,916.974,VALID,0,VALID,94.2559,VALID,0,VALID,18.008,VALID,135,VALID,0,
2013-09-08, 03:11:04,VALID,916.994,VALID,0,VALID,94.1492,VALID,0,VALID,17.9496,VALID,135,VALID,0,
2013-09-08, 03:12:04,VALID,916.966,VALID,0,VALID,94.3321,VALID,0,VALID,17.9301,VALID,135,VALID,0,
2013-09-08, 03:13:04,VALID,916.962,VALID,0,VALID,94.5456,VALID,0,VALID,17.9106,VALID,92,VALID,0,
2013-09-08, 03:14:04,VALID,916.945,VALID,0,VALID,94.6828,VALID,0,VALID,17.8911,VALID,92,VALID,0,
2013-09-08, 03:15:04,VALID,916.954,VALID,0,VALID,94.82,VALID,0,VALID,17.9106,VALID,92,VALID,0,
2013-09-08, 03:16:04,VALID,916.937,VALID,0,VALID,94.9192,VALID,0,VALID,17.9106,VALID,92,VALID,0,
2013-09-08, 03:17:04,VALID,916.944,VALID,0,VALID,94.9801,VALID,0,VALID,17.9106,VALID,92,VALID,0,
2013-09-08, 03:18:04,VALID,916.92,VALID,0,VALID,94.9573,VALID,0,VALID,17.8911,VALID,92,VALID,0,
2013-09-08, 03:19:04,VALID,916.894,VALID,0,VALID,95.0259,VALID,0,VALID,17.8911,VALID,103,VALID,0,
2013-09-08, 03:20:04,VALID,916.909,VALID,0,VALID,95.0259,VALID,0,VALID,17.8521,VALID,102,VALID,0,
2013-09-08, 03:21:04,VALID,916.891,VALID,0,VALID,95.0259,VALID,0,VALID,17.8326,VALID,103,VALID,0,
2013-09-08, 03:22:04,VALID,916.904,VALID,0,VALID,95.0259,VALID,0,VALID,17.7936,VALID,103,VALID,0,
2013-09-08, 03:23:04,VALID,916.912,VALID,0,VALID,95.0335,VALID,0,VALID,17.7352,VALID,103,VALID,0,
2013-09-08, 03:24:04,VALID,916.896,VALID,0,VALID,95.0335,VALID,0,VALID,17.7352,VALID,103,VALID,0,
2013-09-08, 03:25:04,VALID,916.882,VALID,0,VALID,95.1631,VALID,0,VALID,17.7352,VALID,148,VALID,0,
2013-09-08, 03:26:04,VALID,916.859,VALID,0,VALID,95.3003,VALID,0,VALID,17.7352,VALID,148,VALID,0,
2013-09-08, 03:27:04,VALID,916.856,VALID,0,VALID,95.3232,VALID,0,VALID,17.7157,VALID,146,VALID,0,
2013-09-08, 03:28:04,VALID,916.814,VALID,0,VALID,95.3918,VALID,0,VALID,17.7365,VALID,146,VALID,0,
2013-09-08, 03:29:04,VALID,916.841,VALID,0,VALID,95.4223,VALID,0,VALID,17.6962,VALID,146,VALID,0,
2013-09-08, 03:30:04,VALID,916.833,VALID,0,VALID,95.5443,VALID,0,VALID,17.6962,VALID,123,VALID,0,
2013-09-08, 03:31:04,VALID,916.818,VALID,0,VALID,95.6205,VALID,0,VALID,17.7157,VALID,135,VALID,0,
2013-09-08, 03:32:04,VALID,916.828,VALID,0,VALID,95.6586,VALID,0,VALID,17.717,VALID,135,VALID,0,
2013-09-08, 03:33:04,VALID,916.805,VALID,0,VALID,95.7272,VALID,0,VALID,17.7352,VALID,110,VALID,0,
2013-09-08, 03:34:04,VALID,916.776,VALID,0,VALID,95.7577,VALID,0,VALID,17.7352,VALID,105,VALID,0,
2013-09-08, 03:35:04,VALID,916.824,VALID,0,VALID,95.7501,VALID,0,VALID,17.7741,VALID,119,VALID,0,
2013-09-08, 03:36:04,VALID,916.819,VALID,0,VALID,95.7806,VALID,0,VALID,17.7936,VALID,136,VALID,0,
2013-09-08, 03:37:04,VALID,916.8,VALID,0,VALID,95.8035,VALID,0,VALID,17.8326,VALID,132,VALID,0,
2013-09-08, 03:38:04,VALID,916.813,VALID,0,VALID,95.8263,VALID,0,VALID,17.8716,VALID,147,VALID,0,
2013-09-08, 03:39:04,VALID,916.809,VALID,0,VALID,95.7958,VALID,0,VALID,17.8716,VALID,143,VALID,0,
2013-09-08, 03:40:04,VALID,916.842,VALID,0,VALID,95.8035,VALID,0,VALID,17.8911,VALID,143,VALID,0,
2013-09-08, 03:41:04,VALID,916.818,VALID,0,VALID,95.7806,VALID,0,VALID,17.9119,VALID,120,VALID,0,
2013-09-08, 03:42:04,VALID,916.798,VALID,0,VALID,95.773,VALID,0,VALID,17.8911,VALID,115,VALID,0,
2013-09-08, 03:43:04,VALID,916.829,VALID,0,VALID,95.773,VALID,0,VALID,17.8911,VALID,126,VALID,0,
2013-09-08, 03:44:04,VALID,916.801,VALID,0,VALID,95.7654,VALID,0,VALID,17.9106,VALID,117,VALID,0,
2013-09-08, 03:45:04,VALID,916.836,VALID,0,VALID,95.7501,VALID,0,VALID,17.8716,VALID,130,VALID,0,
2013-09-08, 03:46:04,VALID,916.835,VALID,0,VALID,95.7425,VALID,0,VALID,17.8925,VALID,127,VALID,0,
2013-09-08, 03:47:04,VALID,916.84,VALID,0,VALID,95.7577,VALID,0,VALID,17.8925,VALID,125,VALID,0,
2013-09-08, 03:48:04,VALID,916.833,VALID,0,VALID,95.7196,VALID,0,VALID,17.8326,VALID,128,VALID,0,
2013-09-08, 03:49:04,VALID,916.812,VALID,0,VALID,95.7425,VALID,0,VALID,17.8521,VALID,128,VALID,0,
2013-09-08, 03:50:04,VALID,916.781,VALID,0,VALID,95.7501,VALID,0,VALID,17.8521,VALID,124,VALID,0,
2013-09-08, 03:51:04,VALID,916.823,VALID,0,VALID,95.7654,VALID,0,VALID,17.8508,VALID,123,VALID,0,
2013-09-08, 03:52:04,VALID,916.802,VALID,0,VALID,95.8111,VALID,0.107441,VALID,17.8702,VALID,135,VALID,0,
2013-09-08, 03:53:04,VALID,916.845,VALID,0,VALID,95.8187,VALID,0,VALID,17.8702,VALID,134,VALID,0,
2013-09-08, 03:54:04,VALID,916.847,VALID,0,VALID,95.8111,VALID,0,VALID,17.9106,VALID,136,VALID,0,
2013-09-08, 03:55:04,VALID,916.881,VALID,0,VALID,95.8263,VALID,0,VALID,17.9119,VALID,145,VALID,0,
2013-09-08, 03:56:04,VALID,916.922,VALID,0,VALID,95.8035,VALID,0,VALID,17.8911,VALID,144,VALID,0,
2013-09-08, 03:57:04,VALID,916.896,VALID,0,VALID,95.773,VALID,0,VALID,17.8911,VALID,143,VALID,0,
2013-09-08, 03:58:04,VALID,916.865,VALID,0,VALID,95.773,VALID,0,VALID,17.8911,VALID,143,VALID,0,
2013-09-08, 03:59:04,VALID,916.858,VALID,0,VALID,95.7577,VALID,0,VALID,17.9106,VALID,141,VALID,0,